Location: El Bakhil
(32.7726°N, 5.5387°W)
Time: 21:03:27
(UTC+00:00)

N. Korean satellite - Pass Details

Date: 02 December 2021
Orbit: 447 x 490 km, 97.3° (Epoch: 27 January)

Event Time Altitude Azimuth Distance (km) Brightness Sun altitude
Rises 17:55:20 0° 210° (SSW) 2,543 11.1 -8.5°
Reaches altitude 10° 17:58:37 10° 244° (WSW) 1,658 10.9 -9.1°
Maximum altitude 17:59:58 12° 266° (W) 1,548 10.5 -9.4°
Drops below altitude 10° 18:01:19 10° 288° (WNW) 1,653 10.1 -9.7°
Sets 18:04:35 0° 322° (NW) 2,524 10.5 -10.3°
